Regional Weather Roundup
Issued by NWS

Home | Current Version | Previous Version | Text Only | Print | Product List | Glossary Off
Versions: 1 2 3 4 5 6 7 8 9 10 11 12 13 14 15 16 17 18 19 20 21 22 23 24 25 26 27 28 29 30 31 32 33 34 35 36 37 38 39 40 41 42 43 44 45 46 47 48 49 50

000
ASUS43 KLSX 161059
RWRMO

WEATHER SUMMARY FOR MISSOURI
NATIONAL WEATHER SERVICE SPRINGFIELD MO
600 AM CDT TUE SEP 16 2014

NOTE: "FAIR" INDICATES FEW OR NO CLOUDS BELOW 12,000 FEET WITH NO
       SIGNIFICANT WEATHER AND/OR OBSTRUCTIONS TO VISIBILITY.
       CURRENT SKY AND/OR WEATHER CONDITIONS ARE NOT AVAILABLE FOR
       CHILLICOTHE AND FARMINGTON.

MOZ001>031-035>038-043-044-053-054-161200-
...NORTHERN AND WESTERN MISSOURI...

CITY           SKY/WX    TMP DP  RH WIND       PRES   REMARKS
KANSAS CTY INT CLEAR     47  45  93 NE6       30.24F
KANSAS C DTWN  CLEAR     50  47  89 NE3       30.24S
LEE`S SUMMIT   CLEAR     48  47  96 N6        30.24F
ST JOSEPH      FOG       42  42 100 CALM      30.25F VSB 1/2
KIRKSVILLE     FOG       42  40  92 CALM      30.25S VSB 1/2

$$
MOZ066>068-077>081-088>096-101>105-161200-
...SOUTHWEST MISSOURI...

CITY           SKY/WX    TMP DP  RH WIND       PRES   REMARKS
SPRINGFIELD    CLOUDY    64  58  80 NE8       30.18R
JOPLIN         CLOUDY    59  57  93 N8        30.19R

$$
MOZ032>034-039>042-045>050-055>058-069>072-161200-
...CENTRAL MISSOURI...

CITY           SKY/WX    TMP DP  RH WIND       PRES   REMARKS
COLUMBIA       CLOUDY    54  51  90 NE7       30.23R
JEFFERSON CITY CLOUDY    57  51  80 VRB3      30.22R
ROLLA          CLOUDY    56  55  97 NE8       30.19R FOG
SEDALIA        CLOUDY    57  52  83 NE7       30.23S
OSAGE BEACH    CLOUDY    57  54  88 NE3       30.21R

$$
MOZ051-052-059>065-161200-
...EAST CENTRAL MISSOURI...

CITY           SKY/WX    TMP DP  RH WIND       PRES   REMARKS
ST LOUIS INTL  DRIZZLE   59  55  87 E7        30.22R FOG
SPIRIT OF STL  CLOUDY    57  56  96 NE5       30.21R FOG
ST CHARLES     CLOUDY    57  55  93 N7        30.21S

$$
MOZ072>076-082>087-097>100-106>115-161200-
...SOUTH CENTRAL AND SOUTHEAST MISSOURI...

CITY           SKY/WX    TMP DP  RH WIND       PRES   REMARKS
CAPE GIRARDEAU CLOUDY    62  57  83 N14       30.16R
FARMINGTON     CLOUDY    57  55  94 N7        30.21S
POPLAR BLUFF   CLOUDY    65  56  72 N6        30.15R
WEST PLAINS    CLOUDY    63  57  81 NE8       30.19R

$$



USA.gov is the U.S. government's official web portal to all federal, state and local government web resources and services.